sat.trackr.live / text

‹ back to catalog

STARLINK-30827

NORAD 58195 · 2023-167W

PAYLOAD ACTIVE UNKNOWN

§ Identity

Operator
Country
US
Launch date
2023-10-30
Launch site
AFETR
Launch vehicle
Mass (kg)
RCS (m²)

Purposes: comms

External: N2YO · Heavens-Above · Gunter

§ Orbital elements

Epoch: 2026-05-25T03:39:57.803904Z

Period
94.27 min
Inclination
43.0030°
Eccentricity
0.0001301
Mean motion
15.27572577 rev/d
Perigee alt
482.2 km
Apogee alt
484.0 km
Semi-major
6,861.2 km
B*
3.6504e-5
RAAN
71.1870°
Arg perigee
268.9011°
Mean anomaly
91.1692°
Rev number
14,268

§ Raw data

STARLINK-308271 58195U 23167W   26145.15275236  .00000742  00000+0  36504-4 0  99902 58195  43.0030  71.1870 0001301 268.9011  91.1692 15.27572577142683

JSON: /api/v1/satellites/58195 · /tle

For live sub-satellite position, see the globe view (requires WebGL).

§ Visibility from observer

Set your observer location to see the next 7 days of passes ≥ 10°. The values pass through the URL so the page stays shareable.

No JS? Fill the form by hand. The geolocation button needs JavaScript.